Regional Weather Roundup
Issued by NWS Charleston, SC

Current Version | Previous Version | Graphics & Text | Print | Product List | Glossary On
Versions: 1 2 3 4 5 6 7 8 9 10 11 12 13 14 15 16 17 18 19 20 21 22 23 24 25 26 27 28 29 30 31 32 33 34 35 36 37 38 39 40 41 42 43 44 45 46 47 48 49 50
000 ASUS42 KCHS 231812 RWRCHS Regional Weather Roundup National Weather Service Charleston SC 100 PM EST FRI FEB 23 2018 NOTE: "fair" indicates few or no clouds below 12,000 feet with no significant weather and/or obstructions to visibility. Not all stations are quality controlled. Use data with caution, especially dewpoint observations. SCZ027-030-031-034>040-042>050-231900- ...Southeast South Carolina... CITY SKY/WX TMP DP RH WIND PRES REMARKS N Charleston PTSUNNY 77 62 59 VRB3 30.40F 6HR MIN TEMP: 56; 6HR MAX TEMP: 78; Waterfront Prk N/A 71 65 81 CALM 30.26F Mount Pleasant FAIR 77 63 61 S5 30.41F Johns Island FAIR 79 64 61 VRB6G14 30.41F Pinopolis N/A 64 64 100 N7 30.33F Moncks Corner CLOUDY 73 61 64 S7 30.41F Summerville CLOUDY 75 61 60 SE3 30.41F Beaufort MCAS FAIR 78 61 55 SE8 30.40F 6HR MIN TEMP: 58; 6HR MAX TEMP: 79; Beaufort Arpt FAIR 77 63 61 S10 30.40F Hilton Head Is MOSUNNY 75 64 69 SE6 30.42F Walterboro FAIR 79 61 53 S5 30.40F Allendale FAIR 77 61 57 CALM 30.39F ...Southern Midlands and Pee Dee... CITY SKY/WX TMP DP RH WIND PRES REMARKS Georgetown FAIR 75 68 78 SE10 30.42F Kingstree MOCLDY 73 59 60 CALM 30.40F Orangeburg FAIR 76 59 55 S7 30.41 Barnwell N/A 79 63 57 S3 30.41F Aiken MOCLDY 73 59 60 S5 30.44F Manning FAIR 77 50 38 MISG 30.41F Columbia PTSUNNY 77 60 55 SW6 30.40F 6HR MIN TEMP: 55; 6HR MAX TEMP: 78; Sumter FAIR 77 59 53 SW13 30.39F 6HR MIN TEMP: 54; 6HR MAX TEMP: 78; Florence PTSUNNY 77 59 53 VRB6 30.40F 6HR MIN TEMP: 53; 6HR MAX TEMP: 77; Myrtle Beach FAIR 73 66 78 SE9 30.42F N Myrtle Beach FAIR 73 65 75 S7 30.42F 6HR MIN TEMP: 57; 6HR MAX TEMP: 74; $$ GAZ063-065-086>088-099>101-113>116-118-119-134>141-150-231900- ...Southeast Georgia... CITY SKY/WX TMP DP RH WIND PRES REMARKS Savannah Arpt PTSUNNY 82 60 47 S8 30.39F 6HR MIN TEMP: 56; 6HR MAX TEMP: 82; Hunter AAF FAIR 78 74 87 S10 30.37F 6HR MIN TEMP: 58; 6HR MAX TEMP: 79; Fort Stewart PTSUNNY 80 60 50 E5 30.36F 6HR MIN TEMP: 56; 6HR MAX TEMP: 80; Statesboro PTSUNNY 78 55 45 S5 30.40F Sylvania FAIR 78 63 60 S5 30.41F Claxton FAIR 82 62 50 NE3 30.39F ...CSRA, Central and far Southeast Georgia... CITY SKY/WX TMP DP RH WIND PRES REMARKS Thomson FAIR 74 62 65 W7 30.46F Augusta-Bush PTSUNNY 79 60 52 W6 30.40F 6HR MIN TEMP: 59; 6HR MAX TEMP: 79; Augusta-Daniel FAIR 76 58 53 SW5 30.41F Swainsboro MOCLDY 77 63 61 S6 30.41F Vidalia CLOUDY 79 63 57 S3 30.39F Eastman MOCLDY 81 47 30 SE6 30.41F Hazlehurst FAIR 81 55 40 S5 30.38F Alma FAIR 80 59 48 SW5 30.37F 6HR MIN TEMP: 56; 6HR MAX TEMP: 82; Waycross FAIR 81 56 42 S9 30.37F Jesup FAIR 81 61 50 SE3 30.37F Baxley PTSUNNY 77 59 53 S5 30.38F Brunswick PTSUNNY 79 63 57 SE9 30.39F Saint Simons FAIR 76 66 71 SE7 30.39F 6HR MIN TEMP: 62; 6HR MAX TEMP: 77; $$ SCZ027-028-034-036>038-045-046-048>050-GAZ119-141-231900- ...Lake and Supplemental Coastal Observations... STATION/POSITION TIME TEMP WIND PRES WAVE SWELL AIR SEA DIR/SP/G HT/PER HT/PER/DIR (UTC) (F) (DEG/KT/KT) (MB) (FT/S) (FT/S/D) Winyah Bay 1645 66 80/ 7 1031.0 Lake Murray 1720 72 CALM 1029.5F ACE Basin NERRS 1645 76 180/ 2 1030.0 Fort Pulaski 1736 66 62 90/ 8/ 9 1030.2F Sapelo Island 1700 78 140/ 7 1030.0 $$ ANZ835-935-AMZ111-154-330-350-352-354-370-450-454-472-231900- ...C-MAN and Buoy Observations... STATION/POSITION TIME TEMP WIND PRES WAVE SWELL AIR SEA DIR/SP/G HT/PER HT/PER/DIR (UTC) (F) (DEG/KT/KT) (MB) (FT/S) (FT/S/D) Buoy 41004 1750 73 70 130/ 4/ 8 1029.9F 5/ 9 5/130/ 9 Buoy 41008 1750 63 60 30/ 4/ 6 1029.1F 4/10 3/140/10 Folly Beach CMAN 1800 66 80/ 6/ 6 1030.3F Capers Nearshore 1708 66 62 20/ 2/ 6 1030.2F Fripp Nearshore 1708 66 62 60/ 4/ 6 1030.6F STATION/POSITION TIME TEMP WIND PRES WAVE SWELL AIR SEA DIR/SP/G HT/PER HT/PER/DIR (UTC) (F) (DEG/KT/KT) (MB) (FT/S) (FT/S/D) 5E St. Marys GA 1800 68 N/A 4/ 9 2/ 90/15 Frying Pan Buoy 1750 71 72 50/ 6/ 8 1029.9F 3/ 8 3/130/ 8 Buoy 41025 1800 64 20/ 4/ 8 N/A Cape Lookout NC 1700 70/ 8/ 9 1032.0F Buoy 41002 1750 72 73 130/ 8/ 10 1030.7F 6/10 5/120/10 Buoy 41010 NOT AVBL St Augustine FL 1800 68 67 60/ 11/ 12 1028.8F $$

USA.gov is the U.S. government's official web portal to all federal, state and local government web resources and services.